FW7360 Weather Reports


time (UTC)temp
C
wind
direction
speed
KPH
gust
KPH
rain 1hr
cm
rain 24hr
cm
rain mn
cm
humidity
%
barometer
mb
20260906181202 35 139 4.8 4.8 0.00 0.00 0.00 52 1015.5
20260906180702 34 195 1.6 3.2 0.00 0.00 0.00 54 1015.7
20260906180157 35 69 3.2 3.2 0.00 0.00 0.00 53 1016.0
20260906175654 35 111 4.8 8.0 0.00 0.00 0.00 56 1015.6
20260906175150 33 170 4.8 4.8 0.00 0.00 0.00 55 1016.0
20260906174648 33 124 8.0 9.7 0.00 0.00 0.00 58 1016.2
20260906174143 33 103 8.0 8.0 0.00 0.00 0.00 56 1016.4
20260906173639 33 301 1.6 8.0 0.00 0.00 0.00 57 1016.4
20260906173134 33 134 3.2 8.0 0.00 0.00 0.00 60 1016.2
20260906172633 32 89 3.2 8.0 0.00 0.00 0.00 58 1016.5
20260906172129 32 60 3.2 4.8 0.00 0.00 0.00 60 1016.4
20260906171628 32 56 4.8 8.0 0.00 0.00 0.00 60 1016.6
20260906171124 32 108 3.2 4.8 0.00 0.00 0.00 61 1016.5
20260906170620 32 22 4.8 4.8 0.00 0.00 0.00 59 1016.6
20260906170119 32 27 3.2 8.0 0.00 0.00 0.00 60 1016.7
20260906165616 32 116 4.8 8.0 0.00 0.00 0.00 60 1016.8
20260906165111 32 44 4.8 9.7 0.00 0.00 0.00 60 1016.9
20260906164610 32 83 3.2 8.0 0.00 0.00 0.00 62 1016.7
20260906164106 32 208 1.6 3.2 0.00 0.00 0.00 62 1016.8
20260906163601 32 87 4.8 8.0 0.00 0.00 0.00 61 1016.9
20260906163057 32 117 6.4 8.0 0.00 0.00 0.00 61 1016.7
20260906162554 32 115 4.8 8.0 0.00 0.00 0.00 61 1017.0
20260906162049 32 65 3.2 8.0 0.00 0.00 0.00 60 1016.9
20260906161544 32 91 3.2 8.0 0.00 0.00 0.00 61 1016.9
20260906161043 32 187 1.6 4.8 0.00 0.00 0.00 60 1016.9
20260906160542 32 118 3.2 4.8 0.00 0.00 0.00 59 1016.7
20260906160040 32 110 4.8 4.8 0.00 0.00 0.00 60 1016.8
20260906155538 32 276 0.0 3.2 0.00 0.00 0.00 63 1017.1
20260906155034 32 31 1.6 3.2 0.00 0.00 0.00 60 1016.7
20260906154529 31 281 0.0 1.6 0.00 0.00 0.00 63 1016.6
20260906154028 31 300 1.6 3.2 0.00 0.00 0.00 64 1016.6
20260906153527 31 76 1.6 3.2 0.00 0.00 0.00 64 1016.6
20260906153022 31 301 1.6 3.2 0.00 0.00 0.00 64 1016.4
20260906152516 31 224 1.6 3.2 0.00 0.00 0.00 65 1016.4
20260906152016 31 266 1.6 1.6 0.00 0.00 0.00 66 1016.4
20260906151512 31 300 1.6 1.6 0.00 0.00 0.00 65 1016.3
20260906151007 31 307 0.0 3.2 0.00 0.00 0.00 66 1016.5
20260906150502 31 48 3.2 4.8 0.00 0.00 0.00 66 1016.3
20260906150001 30 324 3.2 8.0 0.00 0.00 0.00 68 1016.2
20260906145456 31 84 3.2 8.0 0.00 0.00 0.00 66 1016.5
20260906144955 30 89 4.8 8.0 0.00 0.00 0.00 68 1016.4
20260906144450 30 356 4.8 8.0 0.00 0.00 0.00 69 1016.4
20260906143945 30 16 6.4 8.0 0.00 0.00 0.00 69 1016.4
20260906143441 30 329 4.8 9.7 0.00 0.00 0.00 71 1016.5
20260906142937 30 89 6.4 8.0 0.00 0.00 0.00 69 1016.4
20260906142431 30 34 6.4 8.0 0.00 0.00 0.00 71 1016.4
20260906141926 29 65 3.2 8.0 0.00 0.00 0.00 72 1016.6
20260906141426 28 68 4.8 8.0 0.00 0.00 0.00 73 1016.4
20260906140920 28 307 1.6 4.8 0.00 0.00 0.00 75 1016.4
20260906140414 28 26 4.8 8.0 0.00 0.00 0.00 74 1016.6
20260906135907 28 263 1.6 3.2 0.00 0.00 0.00 76 1016.5
20260906135406 27 303 3.2 3.2 0.00 0.00 0.00 77 1016.2
20260906134902 27 305 4.8 4.8 0.00 0.00 0.00 77 1016.3
20260906134357 27 337 4.8 4.8 0.00 0.00 0.00 77 1016.5
20260906133852 27 275 0.0 3.2 0.00 0.00 0.00 79 1016.4
20260906133348 27 327 4.8 4.8 0.00 0.00 0.00 79 1016.4
20260906132844 27 305 3.2 4.8 0.00 0.00 0.00 80 1016.2
20260906132338 27 286 1.6 1.6 0.00 0.00 0.00 80 1016.2
20260906131834 26 255 0.0 1.6 0.00 0.00 0.00 81 1016.3
20260906131329 27 250 0.0 0.0 0.00 0.00 0.00 81 1016.4
20260906130824 26 250 0.0 0.0 0.00 0.00 0.00 82 1016.1
20260906130318 25 249 0.0 0.0 0.00 0.00 0.00 85 1016.1
20260906125818 25 250 0.0 0.0 0.00 0.00 0.00 86 1016.0
20260906125315 25 250 0.0 0.0 0.00 0.00 0.00 88 1015.8
20260906124810 24 250 0.0 0.0 0.00 0.00 0.00 92 1015.7
20260906124306 23 249 0.0 0.0 0.00 0.00 0.00 93 1015.9
20260906123805 22 249 0.0 0.0 0.00 0.00 0.00 94 1015.8
20260906123300 22 250 0.0 0.0 0.00 0.00 0.00 95 1015.6
20260906122759 22 250 0.0 0.0 0.00 0.00 0.00 96 1015.6
20260906122255 22 250 0.0 0.0 0.00 0.00 0.00 96 1015.8
20260906121752 21 250 0.0 0.0 0.00 0.00 0.00 96 1015.4
20260906121247 21 250 0.0 0.0 0.00 0.00 0.00 97 1015.5
20260906120743 21 250 0.0 0.0 0.00 0.00 0.00 96 1015.4
20260906120240 21 250 0.0 0.0 0.00 0.00 0.00 96 1015.5
20260906115735 21 255 0.0 0.0 0.00 0.00 0.00 96 1015.6
20260906115230 21 255 0.0 1.6 0.00 0.00 0.00 96 1015.4
20260906114729 21 265 0.0 0.0 0.00 0.00 0.00 96 1015.3
20260906114224 21 265 0.0 1.6 0.00 0.00 0.00 96 1015.2
20260906113720 21 253 0.0 0.0 0.00 0.00 0.00 96 1015.4
20260906113219 21 259 0.0 0.0 0.00 0.00 0.00 96 1015.2
20260906112718 21 259 0.0 0.0 0.00 0.00 0.00 96 1015.3
20260906112216 21 247 0.0 0.0 0.00 0.00 0.00 96 1015.3
20260906111715 21 247 0.0 0.0 0.00 0.00 0.00 96 1015.2
20260906111209 21 247 0.0 0.0 0.00 0.00 0.00 96 1015.2
20260906110704 21 253 0.0 0.0 0.00 0.00 0.00 96 1015.1
20260906110200 21 253 0.0 1.6 0.00 0.00 0.00 95 1014.9
20260906105654 21 247 0.0 0.0 0.00 0.00 0.00 95 1015.2
20260906105150 21 259 0.0 0.0 0.00 0.00 0.00 95 1014.9
20260906104649 22 259 0.0 0.0 0.00 0.00 0.00 95 1015.3
20260906104143 22 259 0.0 0.0 0.00 0.00 0.00 95 1015.2
20260906103641 22 259 0.0 0.0 0.00 0.00 0.00 95 1015.1
20260906103136 22 259 0.0 0.0 0.00 0.00 0.00 94 1014.9
20260906102631 22 259 0.0 0.0 0.00 0.00 0.00 94 1014.9
20260906102126 22 259 0.0 0.0 0.00 0.00 0.00 94 1014.7
20260906101626 22 259 0.0 0.0 0.00 0.00 0.00 94 1014.9
20260906101126 22 259 0.0 0.0 0.00 0.00 0.00 94 1014.9
20260906100621 22 259 0.0 0.0 0.00 0.00 0.00 94 1014.7
20260906100122 22 245 0.0 0.0 0.00 0.00 0.00 94 1014.9
20260906095616 22 259 0.0 0.0 0.00 0.00 0.00 94 1014.8
20260906095112 22 235 0.0 0.0 0.00 0.00 0.00 93 1014.8
20260906094610 22 235 0.0 0.0 0.00 0.00 0.00 93 1014.8
20260906094107 22 235 0.0 0.0 0.00 0.00 0.00 93 1014.8
20260906093603 22 235 0.0 0.0 0.00 0.00 0.00 93 1014.9
20260906093057 22 235 0.0 0.0 0.00 0.00 0.00 94 1014.8
20260906092552 22 259 0.0 0.0 0.00 0.00 0.00 94 1014.9
20260906092047 22 247 0.0 0.0 0.00 0.00 0.00 94 1014.9
20260906091543 22 247 0.0 0.0 0.00 0.00 0.00 93 1014.8
20260906091039 22 259 0.0 0.0 0.00 0.00 0.00 93 1014.7
20260906090534 22 245 0.0 0.0 0.00 0.00 0.00 93 1014.6
20260906090034 22 235 0.0 1.6 0.00 0.00 0.00 93 1014.7
20260906085533 22 259 1.6 1.6 0.00 0.00 0.00 94 1014.4
20260906085032 22 235 0.0 0.0 0.00 0.00 0.00 94 1014.7
20260906084527 22 245 0.0 0.0 0.00 0.00 0.00 94 1014.5
20260906084026 22 259 0.0 0.0 0.00 0.00 0.00 94 1014.4
20260906083522 22 259 0.0 0.0 0.00 0.00 0.00 94 1014.3
20260906083021 22 259 0.0 0.0 0.00 0.00 0.00 93 1014.2
20260906082517 22 259 0.0 0.0 0.00 0.00 0.00 93 1014.2
20260906082012 22 259 0.0 0.0 0.00 0.00 0.00 93 1014.4
20260906081508 22 257 0.0 1.6 0.00 0.00 0.00 94 1014.4
20260906081003 22 247 0.0 0.0 0.00 0.00 0.00 94 1014.4
20260906080500 22 247 0.0 0.0 0.00 0.00 0.00 94 1014.3
20260906075955 22 247 0.0 0.0 0.00 0.00 0.00 93 1014.3
20260906075450 22 245 0.0 0.0 0.00 0.00 0.00 93 1014.2
20260906074945 23 245 0.0 1.6 0.00 0.00 0.00 94 1014.1
20260906074439 22 253 0.0 0.0 0.00 0.00 0.00 94 1014.2
20260906073937 22 268 0.0 0.0 0.00 0.00 0.00 93 1014.3
20260906073432 22 252 0.0 0.0 0.00 0.00 0.00 93 1014.4
20260906072929 23 252 0.0 0.0 0.00 0.00 0.00 93 1014.2
20260906072424 23 252 0.0 0.0 0.00 0.00 0.00 93 1014.3
20260906071920 22 253 0.0 0.0 0.00 0.00 0.00 93 1014.2
20260906071415 23 252 0.0 0.0 0.00 0.00 0.00 92 1014.1
20260906070911 23 252 0.0 0.0 0.00 0.00 0.00 92 1014.4
20260906070407 23 253 0.0 0.0 0.00 0.00 0.00 92 1014.3
20260906065903 23 268 0.0 0.0 0.00 0.00 0.00 92 1014.4
20260906065356 23 261 0.0 0.0 0.00 0.00 0.00 92 1014.5
20260906064853 23 257 0.0 0.0 0.00 0.00 0.00 92 1014.5
20260906064349 23 259 0.0 0.0 0.00 0.00 0.00 91 1014.5
20260906063848 23 257 0.0 0.0 0.00 0.00 0.00 91 1014.6
20260906063344 23 260 0.0 0.0 0.00 0.00 0.00 90 1014.5
20260906062839 23 257 0.0 0.0 0.00 0.00 0.00 90 1014.8
20260906062338 23 257 0.0 0.0 0.00 0.00 0.00 89 1014.6
20260906061833 23 257 0.0 0.0 0.00 0.00 0.00 89 1014.6
20260906061330 24 263 0.0 0.0 0.00 0.00 0.00 89 1014.7
20260906060824 24 264 0.0 1.6 0.00 0.00 0.00 89 1014.5
20260906060323 25 266 0.0 0.0 0.00 0.00 0.00 88 1014.7
20260906055818 25 279 1.6 3.2 0.00 0.00 0.00 87 1014.7
20260906055313 24 256 1.6 1.6 0.00 0.00 0.00 88 1014.6
20260906054809 24 254 0.0 0.0 0.00 0.00 0.00 88 1014.6
20260906054304 24 254 0.0 0.0 0.00 0.00 0.00 88 1014.7
20260906053800 24 254 0.0 0.0 0.00 0.00 0.00 88 1014.6
20260906053255 24 254 0.0 0.0 0.00 0.00 0.00 89 1014.8
20260906052750 24 254 0.0 1.6 0.00 0.00 0.00 90 1014.8
20260906052246 23 254 0.0 0.0 0.00 0.00 0.00 91 1014.6
20260906051744 23 254 0.0 0.0 0.00 0.00 0.00 91 1014.8
20260906051243 24 254 0.0 0.0 0.00 0.00 0.00 91 1014.5
20260906050738 24 254 0.0 0.0 0.00 0.00 0.00 91 1014.6
20260906050233 23 254 0.0 0.0 0.00 0.00 0.00 91 1014.6
20260906045732 23 254 0.0 0.0 0.00 0.00 0.00 91 1014.7
20260906045227 24 254 0.0 0.0 0.00 0.00 0.00 91 1014.6
20260906044723 24 254 0.0 0.0 0.00 0.00 0.00 91 1014.5
20260906044218 24 254 0.0 0.0 0.00 0.00 0.00 91 1014.8
20260906043714 24 254 0.0 0.0 0.00 0.00 0.00 91 1014.6
20260906043210 24 254 0.0 0.0 0.00 0.00 0.00 90 1014.6
20260906042709 24 254 0.0 0.0 0.00 0.00 0.00 90 1014.8
20260906042209 25 254 0.0 0.0 0.00 0.00 0.00 90 1014.5
20260906041704 25 254 0.0 0.0 0.00 0.00 0.00 89 1014.6
20260906041159 25 254 0.0 0.0 0.00 0.00 0.00 89 1014.7
20260906040655 25 254 0.0 0.0 0.00 0.00 0.00 89 1014.6
20260906040150 25 254 0.0 0.0 0.00 0.00 0.00 88 1014.5
20260906035645 25 254 0.0 0.0 0.00 0.00 0.00 88 1014.6
20260906035141 25 254 0.0 0.0 0.00 0.00 0.00 89 1014.5
20260906034635 25 254 0.0 0.0 0.00 0.00 0.00 88 1014.5
20260906034130 25 254 0.0 0.0 0.00 0.00 0.00 88 1014.2
20260906033625 25 254 0.0 0.0 0.00 0.00 0.00 88 1014.3
20260906033120 25 254 0.0 0.0 0.00 0.00 0.00 87 1014.3
20260906032617 25 254 0.0 0.0 0.00 0.00 0.00 87 1014.1
20260906032116 25 254 0.0 0.0 0.00 0.00 0.00 86 1014.2
20260906031612 25 254 0.0 1.6 0.00 0.00 0.00 85 1014.2
20260906031107 25 254 0.0 0.0 0.00 0.00 0.00 85 1014.2
20260906030606 26 254 0.0 0.0 0.00 0.00 0.00 84 1014.3
20260906030101 26 254 0.0 1.6 0.00 0.00 0.00 84 1013.9
20260906025556 26 254 0.0 0.0 0.00 0.00 0.00 85 1013.8
20260906025054 26 254 0.0 0.0 0.00 0.00 0.00 84 1013.8
20260906024550 26 254 0.0 0.0 0.00 0.00 0.00 83 1014.0
20260906024050 26 254 0.0 0.0 0.00 0.00 0.00 82 1013.6
20260906023546 26 254 0.0 0.0 0.00 0.00 0.00 83 1013.7
20260906023046 26 254 0.0 0.0 0.00 0.00 0.00 82 1013.7
20260906022541 27 254 0.0 0.0 0.00 0.00 0.00 80 1013.5
20260906022037 27 254 0.0 1.6 0.00 0.00 0.00 80 1013.5
20260906021532 27 253 0.0 0.0 0.00 0.00 0.00 81 1013.4
20260906021031 27 253 0.0 1.6 0.00 0.00 0.00 79 1013.0
20260906020531 27 253 0.0 0.0 0.00 0.00 0.00 79 1013.2
20260906020030 27 253 0.0 0.0 0.00 0.00 0.00 78 1013.1
20260906015530 28 253 0.0 1.6 0.00 0.00 0.00 77 1013.3
20260906015030 28 253 0.0 0.0 0.00 0.00 0.00 78 1013.0
20260906014525 28 253 0.0 1.6 0.00 0.00 0.00 77 1013.0
20260906014021 27 253 1.6 1.6 0.00 0.00 0.00 79 1013.1
20260906013516 27 254 1.6 1.6 0.00 0.00 0.00 81 1013.0
20260906013012 27 268 1.6 3.2 0.00 0.00 0.00 80 1012.9
20260906012507 28 259 0.0 1.6 0.00 0.00 0.00 78 1012.7
20260906012005 28 246 1.6 1.6 0.00 0.00 0.00 79 1012.7
20260906011502 29 263 1.6 1.6 0.00 0.00 0.00 75 1012.9
20260906010956 29 241 0.0 1.6 0.00 0.00 0.00 74 1012.7
20260906010452 28 263 1.6 3.2 0.00 0.00 0.00 71 1012.6
20260906005948 29 237 1.6 1.6 0.00 0.00 0.00 73 1012.6
20260906005447 30 250 0.0 0.0 0.00 0.00 0.00 74 1012.8
20260906004945 30 249 0.0 0.0 0.00 0.00 0.00 71 1012.6
20260906004446 30 249 0.0 1.6 0.00 0.00 0.00 68 1012.7
20260906003941 31 250 0.0 0.0 0.00 0.00 0.00 71 1012.8
20260906003436 31 250 0.0 0.0 0.00 0.00 0.00 66 1012.5
20260906002931 31 250 0.0 0.0 0.00 0.00 0.00 65 1012.8
20260906002431 31 250 0.0 0.0 0.00 0.00 0.00 64 1012.4
20260906001926 32 251 1.6 1.6 0.00 0.00 0.00 64 1012.6
20260906001422 32 251 0.0 0.0 0.00 0.00 0.00 58 1012.7
20260906000917 33 250 0.0 0.0 0.00 0.00 0.00 57 1012.5
20260906000412 33 252 1.6 1.6 0.00 0.00 0.00 58 1012.5
20260905235907 35 234 0.0 0.0 0.00 0.00 0.00 54 1012.6
20260905235401 35 234 0.0 0.0 0.00 0.00 0.00 52 1012.6
20260905234856 35 234 0.0 0.0 0.00 0.00 0.00 52 1012.6
20260905234351 33 234 0.0 0.0 0.00 0.00 0.00 55 1012.5
20260905233846 34 178 1.6 1.6 0.00 0.00 0.00 52 1012.7
20260905233341 35 246 0.0 0.0 0.00 0.00 0.00 59 1012.8
20260905232841 34 224 0.0 1.6 0.00 0.00 0.00 52 1012.4
20260905232337 35 233 0.0 0.0 0.00 0.00 0.00 53 1012.6
20260905231832 35 260 0.0 0.0 0.00 0.00 0.00 58 1012.5
20260905231333 35 239 0.0 0.0 0.00 0.00 0.00 52 1012.7
20260905230829 35 255 0.0 0.0 0.00 0.00 0.00 51 1012.7
20260905230327 35 255 1.6 1.6 0.00 0.00 0.00 49 1012.6
20260905225827 35 224 0.0 1.6 0.00 0.00 0.00 49 1012.6
20260905225322 35 337 1.6 4.8 0.00 0.00 0.00 48 1012.5
20260905224821 35 288 0.0 3.2 0.00 0.00 0.00 47 1012.6
20260905224317 35 101 4.8 4.8 0.00 0.00 0.00 44 1012.4
20260905223812 35 98 4.8 4.8 0.00 0.00 0.00 45 1012.4
20260905223310 35 55 4.8 9.7 0.00 0.00 0.00 43 1012.5
20260905222805 36 97 6.4 11.3 0.00 0.00 0.00 44 1012.5
20260905222306 36 149 8.0 9.7 0.00 0.00 0.00 44 1012.6
20260905221800 36 142 4.8 12.9 0.00 0.00 0.00 43 1012.8
20260905221256 36 152 4.8 8.0 0.00 0.00 0.00 42 1012.6
20260905220752 37 189 4.8 4.8 0.00 0.00 0.00 40 1012.7
20260905220248 37 158 4.8 4.8 0.00 0.00 0.00 39 1012.9
20260905215747 37 158 3.2 4.8 0.00 0.00 0.00 40 1012.8
20260905215243 37 224 1.6 4.8 0.00 0.00 0.00 38 1012.9
20260905214739 37 187 4.8 4.8 0.00 0.00 0.00 40 1012.7
20260905214234 37 102 6.4 8.0 0.00 0.00 0.00 41 1013.0
20260905213729 36 130 6.4 9.7 0.00 0.00 0.00 41 1013.2
20260905213226 36 148 1.6 4.8 0.00 0.00 0.00 41 1013.0
20260905212720 37 117 4.8 9.7 0.00 0.00 0.00 39 1013.0
20260905212219 37 216 1.6 8.0 0.00 0.00 0.00 40 1013.1
20260905211714 36 138 4.8 11.3 0.00 0.00 0.00 42 1013.1
20260905211209 36 119 14.5 16.1 0.00 0.00 0.00 42 1013.1
20260905210706 36 54 9.7 11.3 0.00 0.00 0.00 42 1013.1
20260905210206 36 150 3.2 9.7 0.00 0.00 0.00 41 1013.2
20260905205704 36 149 8.0 11.3 0.00 0.00 0.00 41 1013.3
20260905205159 36 105 9.7 11.3 0.00 0.00 0.00 41 1013.4
20260905204659 36 127 11.3 14.5 0.00 0.00 0.00 42 1013.6
20260905204154 36 111 6.4 11.3 0.00 0.00 0.00 42 1013.5
20260905203648 36 202 11.3 17.7 0.00 0.00 0.00 42 1013.5
20260905203144 37 173 8.0 12.9 0.00 0.00 0.00 40 1013.7
20260905202639 37 198 6.4 11.3 0.00 0.00 0.00 41 1013.8
20260905202135 37 120 12.9 16.1 0.00 0.00 0.00 41 1013.8
20260905201630 36 254 0.0 4.8 0.00 0.00 0.00 43 1014.0
20260905201130 36 58 3.2 8.0 0.00 0.00 0.00 41 1014.0
20260905200626 36 293 1.6 4.8 0.00 0.00 0.00 43 1014.0
20260905200121 36 1 4.8 9.7 0.00 0.00 0.00 42 1014.1
20260905195619 36 77 4.8 12.9 0.00 0.00 0.00 43 1014.0
20260905195115 36 35 6.4 9.7 0.00 0.00 0.00 42 1014.3
20260905194614 37 91 9.7 11.3 0.00 0.00 0.00 41 1014.3
20260905194114 37 66 6.4 9.7 0.00 0.00 0.00 42 1014.2
20260905193609 36 34 6.4 12.9 0.00 0.00 0.00 41 1014.3
20260905193104 36 31 4.8 11.3 0.00 0.00 0.00 43 1014.3
20260905192559 36 107 11.3 12.9 0.00 0.00 0.00 41 1014.3
20260905192055 36 186 3.2 9.7 0.00 0.00 0.00 44 1014.5
20260905191553 36 158 6.4 16.1 0.00 0.00 0.00 43 1014.1
20260905191048 36 66 4.8 9.7 0.00 0.00 0.00 43 1014.3
20260905190546 36 133 8.0 12.9 0.00 0.00 0.00 43 1014.3
20260905190045 36 132 9.7 12.9 0.00 0.00 0.00 45 1014.4
20260905185544 36 129 11.3 14.5 0.00 0.00 0.00 44 1014.8
20260905185044 36 125 4.8 8.0 0.00 0.00 0.00 43 1014.2
20260905184539 36 83 6.4 9.7 0.00 0.00 0.00 44 1014.7
20260905184038 36 117 4.8 12.9 0.00 0.00 0.00 45 1014.7
20260905183537 36 78 9.7 11.3 0.00 0.00 0.00 45 1014.7
20260905183032 36 114 11.3 14.5 0.00 0.00 0.00 45 1015.1
20260905182527 36 81 8.0 11.3 0.00 0.00 0.00 45 1015.1
20260905182027 36 172 8.0 9.7 0.00 0.00 0.00 46 1014.9
20260905181522 36 81 3.2 8.0 0.00 0.00 0.00 44 1015.2